Location: Bay Ridge
(40.6340°N, 74.0146°W)
Time: 22:26:16
(UTC+00:00)

Cosmos 1605 Rocket - Pass Details

Date: 15 November 2019
Orbit: 944 x 1006 km, 82.9° (Epoch: 12 December)

Event Time Altitude Azimuth Distance (km) Brightness Sun altitude
Rises 09:36:51 0° 198° (SSW) 3,667 6.9 -23.8°
Reaches altitude 10° 09:39:26 10° 202° (SSW) 2,714 6.2 -23.3°
Maximum altitude 09:45:31 57° 280° (W) 1,128 3.9 -22.2°
Drops below altitude 10° 09:51:34 10° 359° (N) 2,692 6.2 -21.0°
Sets 09:54:07 0° 4° (N) 3,635 7.0 -20.6°
